Stations météo

réclame
Mon MeteoGroup
Lentran, Grande-Bretagne (99125): Température de l'air & dewpoint: 10.07.2019 14:00:00 - 16.07.2019 14:00:00 (BST)Lentran, Grande-Bretagne (99125): Quantités de précipitations: 10.07.2019 14:00:00 - 16.07.2019 14:00:00 (BST)
Date & Time tt [°C] td [°C] rr [mm]
16.07.2019 14:00:00 - - -
16.07.2019 13:00:00 - - -
16.07.2019 12:00:00 - - -
16.07.2019 11:00:00 - - -
16.07.2019 10:00:00 - - -
16.07.2019 09:00:00 15,8 13,4 0,0
16.07.2019 08:00:00 12,7 12,1 0,0
16.07.2019 07:00:00 10,7 10,5 0,0
16.07.2019 06:00:00 10,3 10,2 0,0
16.07.2019 05:00:00 9,6 9,4 0,0
16.07.2019 04:00:00 9,2 8,9 0,0
16.07.2019 03:00:00 9,3 8,9 0,0
16.07.2019 02:00:00 9,6 9,1 0,0
16.07.2019 01:00:00 10,4 9,7 0,0
16.07.2019 00:00:00 11,5 10,5 0,0
15.07.2019 23:00:00 12,8 10,8 0,0
15.07.2019 22:00:00 14,2 11,6 0,0
15.07.2019 21:00:00 15,8 12,0 0,0
15.07.2019 20:00:00 16,9 11,6 0,0
15.07.2019 19:00:00 16,8 11,1 0,0
15.07.2019 18:00:00 18,0 12,2 0,0
15.07.2019 17:00:00 19,0 13,0 0,0
15.07.2019 16:00:00 21,1 14,2 0,0
15.07.2019 15:00:00 21,9 14,6 0,0
15.07.2019 14:00:00 20,1 13,4 0,0
15.07.2019 13:00:00 19,4 13,8 0,0
15.07.2019 12:00:00 17,6 13,4 0,0
15.07.2019 11:00:00 15,1 12,0 0,0
15.07.2019 10:00:00 13,1 11,4 0,0
15.07.2019 09:00:00 11,8 10,8 0,0
15.07.2019 08:00:00 11,2 10,7 0,0
15.07.2019 07:00:00 10,6 10,3 0,0
15.07.2019 06:00:00 10,4 10,2 0,0
15.07.2019 05:00:00 10,4 10,3 0,0
15.07.2019 04:00:00 10,3 10,2 0,0
15.07.2019 03:00:00 10,5 10,4 0,0
15.07.2019 02:00:00 9,6 9,3 0,0
15.07.2019 01:00:00 10,0 9,5 0,0
15.07.2019 00:00:00 11,1 10,4 0,0
14.07.2019 23:00:00 12,0 10,1 0,0
14.07.2019 22:00:00 13,5 9,6 0,0
14.07.2019 21:00:00 17,4 10,8 0,0
14.07.2019 20:00:00 17,5 10,7 0,0
14.07.2019 19:00:00 17,5 10,4 0,0
14.07.2019 18:00:00 18,3 11,0 0,0
14.07.2019 17:00:00 18,6 11,1 0,0
14.07.2019 16:00:00 18,5 10,9 0,0
14.07.2019 15:00:00 17,4 9,6 0,0
14.07.2019 14:00:00 16,6 9,9 0,0
14.07.2019 13:00:00 15,7 9,6 0,0
14.07.2019 12:00:00 14,5 9,8 0,0
14.07.2019 11:00:00 13,6 8,5 0,0
14.07.2019 10:00:00 13,1 9,0 0,0
14.07.2019 09:00:00 12,9 9,3 0,0
14.07.2019 08:00:00 12,2 9,3 0,0
14.07.2019 07:00:00 11,5 9,0 0,0
14.07.2019 06:00:00 10,5 9,7 0,0
14.07.2019 05:00:00 10,2 9,2 0,0
14.07.2019 04:00:00 10,1 9,3 0,0
14.07.2019 03:00:00 9,7 9,3 0,0
14.07.2019 02:00:00 9,1 8,6 0,0
14.07.2019 01:00:00 9,3 8,3 0,0
14.07.2019 00:00:00 10,5 8,4 0,0
13.07.2019 23:00:00 12,0 9,1 0,0
13.07.2019 22:00:00 13,1 10,6 0,0
13.07.2019 21:00:00 13,7 10,8 0,0
13.07.2019 20:00:00 13,9 10,4 0,0
13.07.2019 19:00:00 14,5 10,7 0,0
13.07.2019 18:00:00 14,8 11,4 0,0
13.07.2019 17:00:00 15,5 11,5 0,0
13.07.2019 16:00:00 15,9 10,8 0,0
13.07.2019 15:00:00 15,8 10,4 0,0
13.07.2019 14:00:00 15,3 10,3 0,0
13.07.2019 13:00:00 16,7 11,6 0,0
13.07.2019 12:00:00 15,8 12,9 0,2
13.07.2019 11:00:00 15,6 12,2 0,0
13.07.2019 10:00:00 15,4 11,4 0,0
13.07.2019 09:00:00 14,4 11,9 0,0
13.07.2019 08:00:00 14,4 11,7 0,0
13.07.2019 07:00:00 14,0 12,1 0,0
13.07.2019 06:00:00 13,6 11,7 0,0
13.07.2019 05:00:00 13,6 11,9 0,0
13.07.2019 04:00:00 13,4 12,6 0,0
13.07.2019 03:00:00 13,6 12,7 0,0
13.07.2019 02:00:00 13,3 13,0 0,0
13.07.2019 01:00:00 13,6 13,2 0,0
13.07.2019 00:00:00 13,8 13,3 0,0
12.07.2019 23:00:00 14,1 13,3 0,0
12.07.2019 22:00:00 14,6 13,8 0,0
12.07.2019 21:00:00 15,1 13,9 0,0
12.07.2019 20:00:00 16,4 14,4 0,0
12.07.2019 19:00:00 16,9 14,5 0,0
12.07.2019 18:00:00 16,4 15,0 0,2
12.07.2019 17:00:00 16,9 14,4 0,0
12.07.2019 16:00:00 17,1 14,9 0,0
12.07.2019 15:00:00 16,9 14,1 0,0
12.07.2019 14:00:00 17,3 14,7 0,0
12.07.2019 13:00:00 17,6 14,3 0,0
12.07.2019 12:00:00 15,9 14,5 0,2
12.07.2019 11:00:00 15,9 13,6 0,0
12.07.2019 10:00:00 15,5 13,0 0,0
12.07.2019 09:00:00 15,1 13,4 0,0
12.07.2019 08:00:00 14,3 12,6 0,0
12.07.2019 07:00:00 13,5 12,1 0,0
12.07.2019 06:00:00 13,2 12,2 0,0
12.07.2019 05:00:00 12,9 12,1 0,0
12.07.2019 04:00:00 13,1 12,5 0,0
12.07.2019 03:00:00 13,1 12,8 0,0
12.07.2019 02:00:00 13,4 13,1 0,2
12.07.2019 01:00:00 13,5 13,0 0,6
12.07.2019 00:00:00 13,9 13,2 0,2
11.07.2019 23:00:00 14,4 13,4 0,0
11.07.2019 22:00:00 15,2 14,6 0,0
11.07.2019 21:00:00 15,8 15,0 0,0
11.07.2019 20:00:00 15,9 14,8 0,0
11.07.2019 19:00:00 15,9 14,8 0,6
11.07.2019 18:00:00 16,2 14,8 0,2
11.07.2019 17:00:00 17,7 16,0 1,8
11.07.2019 16:00:00 16,5 14,9 0,8
11.07.2019 15:00:00 18,7 16,1 0,0
11.07.2019 14:00:00 16,7 15,6 0,2
11.07.2019 13:00:00 17,5 14,9 0,0
11.07.2019 12:00:00 18,6 15,6 0,0
11.07.2019 11:00:00 17,7 17,2 0,0
11.07.2019 10:00:00 15,5 15,4 0,2
11.07.2019 09:00:00 14,7 14,7 0,0
11.07.2019 08:00:00 14,5 14,4 0,0
11.07.2019 07:00:00 14,1 14,1 0,0
11.07.2019 06:00:00 13,3 13,2 0,0
11.07.2019 05:00:00 13,4 13,3 0,0
11.07.2019 04:00:00 13,5 13,3 0,0
11.07.2019 03:00:00 13,7 13,5 0,0
11.07.2019 02:00:00 14,0 13,8 0,0
11.07.2019 01:00:00 14,4 14,1 0,0
11.07.2019 00:00:00 14,9 14,7 0,0
10.07.2019 23:00:00 15,0 14,6 0,6
10.07.2019 22:00:00 15,6 15,2 11,6
10.07.2019 21:00:00 16,2 15,6 2,6
10.07.2019 20:00:00 16,3 15,5 0,4
10.07.2019 19:00:00 16,9 15,2 0,0
10.07.2019 18:00:00 20,0 15,0 0,0
10.07.2019 17:00:00 20,1 14,7 0,0
10.07.2019 16:00:00 20,5 15,4 0,0
10.07.2019 15:00:00 20,3 14,9 0,0
10.07.2019 14:00:00 20,5 15,9 0,0

tt = Température de l'air
td = dewpoint
rr = Quantités de précipitations

stations d'obs. à proximité